Regional Weather Roundup
Issued by NWS

Home | Current Version | Previous Version | Text Only | Print | Product List | Glossary Off
Versions: 1 2 3 4 5 6 7 8 9 10 11 12 13 14 15 16 17 18 19 20 21 22 23 24 25 26 27 28 29 30 31 32 33 34 35 36 37 38 39 40 41 42 43 44 45 46 47 48 49 50

000
ASUS43 KMKX 250811
RWRWI

WISCONSIN REGIONAL WEATHER ROUNDUP
NATIONAL WEATHER SERVICE MILWAUKEE/SULLIVAN WI
300 AM CDT MON JUL 25 2016

NOTE: "FAIR" INDICATES FEW OR NO CLOUDS BELOW 12,000 FEET WITH NO
SIGNIFICANT WEATHER AND/OR OBSTRUCTIONS TO VISIBILITY.

WIZ001-002-006>008-014>016-023>028-250900-
NORTHWEST WISCONSIN

CITY           SKY/WX    TMP DP  RH WIND       PRES   REMARKS
SUPERIOR ARPT  CLEAR     61  60  97 S5        29.93R
ASHLAND        CLEAR     66  61  84 SW8       29.92R
HAYWARD        CLEAR     61  59  93 S5        29.96R
SIREN          NOT AVBL
CUMBERLAND     CLEAR     61  59  94 W5        29.98S
RICE LAKE      CLEAR     63  60  88 W3        29.99R
CHETEK         CLEAR     66  62  85 W3        29.97S
LADYSMITH      CLEAR     66  62  87 W3        29.99R
EAU CLAIRE     CLEAR     66  63  90 SW5       29.98R
MENOMONIE      CLEAR     68  62  80 SW3       29.99R
NEW RICHMOND   CLEAR     63  61  93 W3        29.99S
OSCEOLA        CLEAR     64  62  95 CALM      30.01R
$$

WIZ003>005-009-010-017-018-250900-
NORTH CENTRAL WISCONSIN

CITY           SKY/WX    TMP DP  RH WIND       PRES   REMARKS
MANITOWISH WTR CLEAR     63  63  97 W7        29.94R
ARBOR VITAE    CLEAR     64  61  88 CALM      29.95R
WOODRUFF       CLEAR     64  61  88 CALM      29.95R
RHINELANDER    CLEAR     62  59  90 W7        29.96R
EAGLE RIVER    CLEAR     64  59  82 W8        29.94R
LAND O LAKES   CLEAR     64  59  86 W5        29.94R
PHILLIPS       CLEAR     62  61  97 CALM      29.96R
TOMAHAWK       CLEAR     61  58  91 W5        29.97R
MEDFORD        CLEAR     63  63 100 W5        29.98R
MERRILL        CLEAR     62  62  99 W5        29.97R
$$

WIZ029-030-035-036-043>047-250900-
CENTRAL WISCONSIN

CITY           SKY/WX    TMP DP  RH WIND       PRES   REMARKS
WAUSAU         CLEAR     66  62  87 CALM      29.95R
MOSINEE        CLEAR     63  61  94 W7        29.98S
MARSHFIELD     CLEAR     63  60  90 W6        29.98R
STEVENS POINT  CLEAR     65  62  89 W5        29.97F
WAUPACA        PTCLDY    69  66  89 W3        29.94F
WAUTOMA        PTCLDY    66  63  90 W6        29.97S
WISC RAPIDS    CLEAR     65  61  87 W6        29.98S
CAMP DOUGLAS   CLEAR     64  62  94 W6        29.98S
$$

WIZ011>013-019>022-031-037>040-048>050-250900-
NORTHEAST WISCONSIN

CITY           SKY/WX    TMP DP  RH WIND       PRES   REMARKS
ANTIGO         CLEAR     60  59  98 CALM      29.97R
SHAWANO        CLEAR     68  63  82 W6        29.93S
OCONTO         CLEAR     67  67 100 W3        29.89S
STURGEON BAY   PTCLDY    71  66  84 W7        29.90S
GREEN BAY      PTCLDY    67  66  97 W7        29.92R
MANITOWOC      CLOUDY    73  64  73 MISG      29.92R
APPLETON       CLOUDY    66  61  82 W8        29.93S
CLINTONVILLE   CLEAR     64  61  88 W7        29.93S
OSHKOSH        MOCLDY    71  64  78 W8        29.94R
$$

WIZ032>034-041-042-053>061-250900-
SOUTHWEST WISCONSIN

CITY           SKY/WX    TMP DP  RH WIND       PRES   REMARKS
LA CROSSE      CLEAR     70  64  81 S3        29.99R
SPARTA         CLEAR     61  61  99 CALM      30.00F
VIROQUA        CLEAR     65  64  98 SW6       30.02S
BOSCOBEL       CLOUDY    67  66  97 CALM      30.00F
PRAIRIE DU CHI PTCLDY    69  65  86 CALM      30.01S
PLATTEVILLE    CLOUDY    68  68 100 CALM      30.01S
$$

WIZ056-057-062-063-064-067-068-250900-
SOUTH CENTRAL WISCONSIN

CITY           SKY/WX    TMP DP  RH WIND       PRES   REMARKS
REEDSBURG      CLOUDY    67  66  97 NW3       29.98F
BARABOO/DELLS  CLOUDY    68  63  83 W5        29.99S
LONE ROCK      CLOUDY    69  66  90 W5        30.00R
MINERAL POINT  CLOUDY    70  68  94 NW3       30.02R
MADISON        CLOUDY    72  66  81 NW3       29.97R
MIDDLETON      CLOUDY    71  67  87 W6        30.00R
WATERTOWN      CLOUDY    71  68  89 CALM      29.97R
MONROE         CLOUDY    70  66  88 NW7       30.00R
JANESVILLE     CLOUDY    72  70  94 W3        29.97S
$$

WIZ051-052-058>065-066-070>072-250900-
SOUTHEAST WISCONSIN

CITY           SKY/WX    TMP DP  RH WIND       PRES   REMARKS
MILWAUKEE      CLOUDY    79  65  62 W6        29.95S HX  81
WAUKESHA       CLOUDY    70  63  78 W7        29.98R
MILWAUKEE/TIMM CLOUDY    73  63  68 W5        29.96S
RACINE         CLOUDY    76  66  71 NW6       29.96S
BURLINGTON     CLOUDY    72  68  87 W3        29.97S
KENOSHA        CLOUDY    74  68  81 W7        29.97R
FOND DU LAC    CLOUDY    72  64  76 W7        29.95R
SHEBOYGAN      CLOUDY    72  64  76 W5        29.93R
WEST BEND      CLOUDY    72  64  78 SW3       29.97R
JUNEAU         CLOUDY    70  65  84 CALM      29.98R
$$

LSZ147-162-250900-
LAKE SUPERIOR

STATION/POSITION TIME  TEMP    WIND        PRES    WAVE
                       AIR SEA DIR/SP/G            HT/PER
                 (UTC) (F)     (DEG/KT/KT) (MB)    (FT/S)
W MID LAKE BUOY  0750   63 59  260/ 14/ 14 1009.7R   2/ 4
DEVILS ISLAND    0800   65     260/ 16/ 19 1011.8R
SAXON HARBOR     0740   69     210/  6/  9 1012.2R
$$

LMZ867-665-643>646-250900-
LAKE MICHIGAN

STATION/POSITION TIME  TEMP    WIND        PRES    WAVE
                       AIR SEA DIR/SP/G            HT/PER
                 (UTC) (F)     (DEG/KT/KT) (MB)    (FT/S)
CHAMBERS ISLAND  0700   70     200/  3/  6 1011.5R
N MID LAKE BUOY  0750   70 68  240/  8/  8 1010.1R   2/ 5
NORTHPORT PIER   0700   72     270/  3/  6 1011.2R
KEWAUNEE LAKESHO 0700   72     290/  4/  6 1012.0R
SHEBOYGAN LAKESH 0800   75     260/  8/ 10 1013.5R
PORT WASHINGTON  0740   76     280/  4/  6 1014.6R
MILWAUKEE LAKESH 0710   78     320/  4/  4   N/A
S MID LAKE BUOY  0750   74 72  230/ 10/ 12 1012.6S   2/ 5
KENOSHA   LAKESH 0800   77     290/  8/ 12 1013.9R
$$

TC  - TEMPERATURE IN CELSIUS
VSB - VISIBILITY IN STATUTE MILES
WCI - WIND CHILL INDEX
HX  - HEAT INDEX





USA.gov is the U.S. government's official web portal to all federal, state and local government web resources and services.